Flag for United Kingdom Weather past 2 weeks in Wakefield, England, United Kingdom

Now
43 °F

Passing clouds.


Feels Like: 37 °F
Forecast: 39 / 48 °F
Wind: 9 mph from Northwest

Location: Leeds And Bradford

Current Time: Jan 26, 2015 at 7:05:52 AM

Latest Report: Jan 26, 2015 at 6:20 AM


Visibility: N/A

Pressure: 30.07 "Hg

Humidity: 87%

Dew point: 39 °F

Location of WakefieldLocation

Historic Weather in Wakefield — Graph

°F

Wakefield temperature yesterday

Maximum temperature yesterday: 46 °F (at 7:20 PM)
Minimum temperature yesterday: 39 °F (at 12:20 AM)
Average temperature yesterday: 43 °F

Past Weeks' High & Low Weather Summary

 TemperatureHumidityPressure
High48 °F (Jan 12, 9:20 AM)100% (Jan 13, 9:20 PM)30.36 "Hg (Jan 13, 9:20 PM)
Low28 °F (Jan 18, 6:50 AM)70% (Jan 12, 3:20 PM)28.77 "Hg (Jan 15, 1:20 AM)
Average36 °F91%29.75 "Hg
* Reported Jan 11 5:20 AM — Jan 26 5:50 AM, Wakefield, Weather by CustomWeather, © 2014

Note: Actual official high and low records may vary slightly from our data, if they occured in-between our weather recording intervals... More about our weather records

Advertising

Wakefield weather history for previous 24 hours

 ConditionsComfort  
Time TempWeatherWind HumidityBarometerVisibility
5:50 AM
Jan 26
43 °FPassing clouds.13 mph93%30.07 "HgN/A
5:20 AM45 °FPassing clouds.14 mph93%30.07 "HgN/A
4:50 AM45 °FPassing clouds.17 mph93%30.04 "HgN/A
4:20 AM45 °FPassing clouds.13 mph100%30.04 "HgN/A
3:50 AM46 °FPassing clouds.13 mph93%30.04 "HgN/A
3:20 AM46 °FPassing clouds.13 mph100%30.04 "HgN/A
2:50 AM46 °FPassing clouds.10 mph100%30.04 "HgN/A
2:20 AM46 °FPassing clouds.12 mph100%30.07 "HgN/A
1:50 AM46 °FPassing clouds.7 mph100%30.07 "HgN/A
1:20 AM46 °FPassing clouds.9 mph100%30.07 "HgN/A
12:50 AM46 °FPassing clouds.10 mph100%30.07 "HgN/A
12:20 AM46 °FPassing clouds.13 mph93%30.07 "HgN/A
11:50 PM
Jan 25
46 °FPassing clouds.16 mph93%30.07 "HgN/A
11:20 PM46 °FPassing clouds.16 mph93%30.09 "HgN/A
10:50 PM46 °FPassing clouds.14 mph93%30.07 "HgN/A
10:20 PM46 °FPassing clouds.10 mph93%30.09 "HgN/A
9:20 PM45 °FPassing clouds.12 mph100%30.12 "HgN/A
8:50 PM46 °FPartly cloudy.13 mph93%30.12 "HgN/A
8:20 PM46 °FPartly cloudy.13 mph93%30.12 "HgN/A
7:50 PM46 °FPassing clouds.10 mph93%30.15 "HgN/A
7:20 PM46 °FPassing clouds.8 mph93%30.15 "HgN/A
6:50 PM45 °FPassing clouds.6 mph100%30.15 "Hg5 mi
6:20 PM45 °FDrizzle. Fog.9 mph100%30.15 "Hg1 mi
5:50 PM45 °FDrizzle. Fog.9 mph100%30.18 "Hg1 mi
5:20 PM45 °FPartly cloudy.10 mph100%30.18 "Hg2 mi
4:50 PM45 °FPassing clouds.8 mph100%30.18 "Hg5 mi
4:20 PM45 °FBroken clouds.10 mph93%30.18 "HgN/A
3:50 PM45 °FBroken clouds.13 mph93%30.18 "HgN/A
3:20 PM45 °FBroken clouds.12 mph93%30.21 "HgN/A
2:50 PM45 °FBroken clouds.14 mph93%30.21 "HgN/A
2:20 PM43 °FBroken clouds.13 mph93%30.21 "HgN/A
1:50 PM43 °FPartly sunny.14 mph93%30.21 "HgN/A
1:20 PM45 °FPartly sunny.15 mph87%30.21 "HgN/A
12:50 PM45 °FScattered clouds.16 mph87%30.21 "HgN/A
12:20 PM43 °FScattered clouds.20 mph87%30.24 "HgN/A
11:50 AM43 °FScattered clouds.28 mph87%30.24 "HgN/A
11:20 AM43 °FScattered clouds.23 mph87%30.24 "HgN/A
10:50 AM43 °FScattered clouds.22 mph87%30.24 "HgN/A
10:20 AM43 °FScattered clouds.21 mph87%30.24 "HgN/A
9:50 AM43 °FScattered clouds.22 mph87%30.24 "HgN/A
9:20 AM41 °FScattered clouds.25 mph93%30.27 "HgN/A
8:50 AM41 °FScattered clouds.22 mph87%30.27 "HgN/A
8:20 AM41 °FPassing clouds.16 mph87%30.27 "HgN/A
7:50 AM41 °FScattered showers. Passing clouds.16 mph87%30.30 "HgN/A
7:20 AM41 °FSprinkles. Passing clouds.24 mph81%30.27 "HgN/A
Weather by CustomWeather, © 2014

See weather overviewHow to use our weather pages